Regional Weather Roundup
Issued by NWS

Home | Current Version | Previous Version | Graphics & Text | Print | Product List | Glossary Off
Versions: 1 2 3 4 5 6 7 8 9 10 11 12 13 14 15 16 17 18 19 20 21 22 23 24 25 26 27 28 29 30 31 32 33 34 35 36 37 38 39 40 41 42 43 44 45 46 47 48 49 50

000
ASUS43 KDTX 052101
RWRMI
MICHIGAN HOURLY REGIONAL WEATHER ROUNDUP
NATIONAL WEATHER SERVICE DETROIT/PONTIAC MI
400 PM EST THU MAR 05 2015

NOTE: "FAIR" INDICATES FEW OR NO CLOUDS BELOW 12,000 FEET WITH NO
SIGNIFICANT WEATHER AND/OR OBSTRUCTION TO VISIBILITY.

MIZ047>049-052>055-059>063-066>070-074>076-081>083-052200-
SOUTHEAST LOWER MICHIGAN

CITY           SKY/WX    TMP DP  RH WIND       PRES   REMARKS
ADRIAN         MOSUNNY   19   0  43 N9        30.41R WCI   8
ALMA           CLOUDY    17   1  48 W7        30.40R WCI   8
ANN ARBOR      SUNNY     17  -2  43 N8        30.39R WCI   7
BAD AXE        SUNNY     11  -3  51 SW9       30.39S WCI  -1
CARO           SUNNY     14  -2  48 CALM      30.40R
DETROIT CITY   SUNNY     20  -2  38 NW10G16   30.40R WCI   9
DETROIT        MOSUNNY   19  -2  39 VRB7      30.41R WCI  10
FLINT          SUNNY     15  -2  46 W16       30.40R WCI  -1
GROSSE ILE     SUNNY     19  -2  38 NW10G16   30.39R WCI   8
HILLSDALE      PTSUNNY   17   2  52 NW6       30.37R WCI   9
HOWELL         SUNNY     14  -1  50 NW9       30.38S WCI   2

CITY           SKY/WX    TMP DP  RH WIND       PRES   REMARKS
JACKSON        FAIR      17   1  49 NW12      30.38S WCI   4
LAMBERTVILLE   PTSUNNY   19   3  49 N7        30.41S WCI  10
LANSING        MOSUNNY   17   0  47 NW9       30.40S WCI   6
LAPEER         FAIR      14  -4  43 NW6       30.39R WCI   5
MASON          SUNNY     15   0  50 NW14G20   30.39S WCI   0
MONROE         SUNNY     18   1  49 W13       30.39S WCI   4
MT. CLEMENS    MOSUNNY   16  -2  44 N9        30.38R WCI   4
PONTIAC        MOSUNNY   14  -3  47 NW12      30.37R WCI   0
PORT HOPE        N/A     13  -3  49 VRB7      30.38S WCI   3
PORT HURON     SUNNY     14  -6  41 NW9       30.41R WCI   2
TRI CITIES     MOSUNNY   16   0  49 SW8       30.40R WCI   5
TROY           SUNNY     19  -4  35 W9        30.42R WCI   8
SAGINAW HB     SUNNY     18   1  49 W10       30.40S WCI   6
$$
MIZ043>046-050>051-056>058-064>065-071>073-077>080-052200-
SOUTHWEST LOWER MICHIGAN

CITY           SKY/WX    TMP DP  RH WIND       PRES   REMARKS
BATTLE CREEK   MOSUNNY   19   2  47 NW9       30.39R WCI   8
BENTON HARBOR  LGT SNOW  16  11  80 NW10G17   30.46R WCI   4
BIG RAPIDS     CLOUDY    16   3  57 W12       30.37S WCI   3
COLDWATER      CLOUDY    19   3  50 NW10      30.39S WCI   7
FREMONT        CLOUDY    16   1  51 W10       30.42R WCI   4
HOLLAND        PTSUNNY   16   6  65 W12       30.45R WCI   3
GRAND RAPIDS   PTSUNNY   17   1  49 NW12      30.41R WCI   4
IONIA          FAIR      19   2  48 NW12      30.40R WCI   6
KALAMAZOO      MOSUNNY   19   1  45 W14       30.40S WCI   6
LUDINGTON      CLOUDY    13   2  60 W7        30.45R WCI   3
MARSHALL       PTSUNNY   19   1  46 NW10G21   30.38R WCI   7
MOUNT PLEASANT PTSUNNY   18   0  46 W6        30.38S WCI   9
MUSKEGON       PTSUNNY   15   4  61 NW9       30.45R WCI   3
SOUTH HAVEN    PTSUNNY   19   7  59 NW9       30.45R WCI   8
$$
MIZ016>042-052200-
NORTHERN LOWER MICHIGAN

CITY           SKY/WX    TMP DP  RH WIND       PRES   REMARKS
ALPENA         MIX PCPN  16  -4  41 N3        30.35S
BEAVER ISLAND  MOSUNNY   10   2  68 W10G18    30.38S WCI  -3
BELLAIRE       PTSUNNY   14  -1  51 NW8       30.41R WCI   2
CADILLAC       CLOUDY    12   1  62 W8        30.33R WCI   0
CHARLEVOIX     SUNNY     11   0  60 CALM      30.43R
FRANKFORT      CLOUDY    12   1  62 W6        30.42S WCI   3
GAYLORD        SUNNY     10  -5  50 W9        30.31R WCI  -3
GRAYLING       MOSUNNY   13  -2  50 NW9       30.33S WCI   1
HARBOR SPRINGS SUNNY      9  -1  64 SW8       30.39R WCI  -3
HOUGHTON LAKE  MOSUNNY   15  -2  46 W10       30.33R WCI   2
MANISTEE       CLOUDY    12   0  57 W8        30.43R WCI   1
OSCODA         PTSUNNY   16   2  55 E9        30.35S WCI   4
PELLSTON       SUNNY     11  -4  51 W7        30.38R WCI   0
ROGERS CITY    SUNNY     14  -3  46 W6G18     30.37R WCI   5
TRAVERSE CITY  FLURRIES  12   4  70 NE6       30.39R WCI   3
$$
MIZ007>008-015-052200-
EASTERN UPPER MICHIGAN

CITY           SKY/WX    TMP DP  RH WIND       PRES   REMARKS
KINROSS        MOSUNNY   16  -2  45 N9        30.32R WCI   4
MACKINAC ISLAN SUNNY      9  -3  57 SW12G18   30.36S WCI  -5
NEWBERRY       MOSUNNY   11  -2  56 W6        30.32S WCI   1
S. S. MARIE    SUNNY     12  -5  46 NW10      30.33R WCI  -1
MUNISING         N/A     11  -1  58 NE9       30.35S WCI  -2
$$
MIZ004>006-011>014-085-052200-
CENTRAL UPPER MICHIGAN

CITY           SKY/WX    TMP DP  RH WIND       PRES   REMARKS
MANISTIQUE     SUNNY     14  -3  46 SW6       30.34F WCI   5
ESCANABA       SUNNY     12   0  57 S14       30.37F WCI  -3
MENOMINEE      SUNNY     16  -6  38 SW8       30.37F WCI   5
SAWYER-GWINN   SUNNY     14  -6  41 NW7       30.27F WCI   4
$$
MIZ001>003-009>011-084-052200-
WESTERN UPPER MICHIGAN

CITY           SKY/WX    TMP DP  RH WIND       PRES   REMARKS
IRON MOUNTAIN  SUNNY     16  -7  35 NW10      30.29F WCI   4
HOUGHTON       SUNNY      9  -2  61 W18G24    30.28F WCI -10
COPPER HARBOR    N/A     12  -4  48 N12       30.30F WCI  -2
IRONWOOD       SUNNY     12  -9  37 W8        30.28F WCI   1
$$

ABBREVIATIONS USED IN REMARKS
   TC - TEMPERATURE IN CELSIUS
  WCI - WIND CHILL INDEX
   HX - HEAT INDEX
  VSB - VISIBILITY



USA.gov is the U.S. government's official web portal to all federal, state and local government web resources and services.